EW5546 Weather Reports


Display with metric or nautical units.
time (UTC)temp
F
wind
direction
speed
MPH
gust
MPH
rain 1hr
in
rain 24hr
in
rain mn
in
humidity
%
barometer
mb
20260510201038 60 329 1.0 2.0 0.00 0.00 0.00 30 1010.0
20260510200033 61 344 1.0 2.0 0.00 0.00 0.00 30 1010.0
20260510195017 61 348 0.0 1.0 0.00 0.00 0.00 29 1010.0
20260510194033 61 14 1.0 2.0 0.00 0.00 0.00 28 1010.0
20260510193018 62 0.0 0.0 0.00 0.00 0.00 28 1010.0
20260510192032 62 338 0.0 1.0 0.00 0.00 0.00 28 1010.0
20260510191048 62 0.0 0.0 0.00 0.00 0.00 28 1010.0
20260510190022 62 0.0 0.0 0.00 0.00 0.00 27 1010.0
20260510185024 63 0.0 0.0 0.00 0.00 0.00 27 1010.0
20260510184042 63 0.0 0.0 0.00 0.00 0.00 27 1010.0
20260510183021 63 0.0 0.0 0.00 0.00 0.00 26 1010.0
20260510182038 64 0.0 0.0 0.00 0.00 0.00 26 1010.0
20260510181016 64 0.0 0.0 0.00 0.00 0.00 26 1010.0
20260510180025 64 0.0 0.0 0.00 0.00 0.00 26 1010.0
20260510175047 65 0.0 0.0 0.00 0.00 0.00 25 1010.0
20260510174046 65 0.0 0.0 0.00 0.00 0.00 25 1010.0
20260510173020 65 338 0.0 1.0 0.00 0.00 0.00 24 1010.0
20260510172036 65 0.0 0.0 0.00 0.00 0.00 24 1010.0
20260510171054 66 0.0 0.0 0.00 0.00 0.00 24 1010.0
20260510170020 66 0.0 0.0 0.00 0.00 0.00 24 1010.0
20260510165037 66 0.0 0.0 0.00 0.00 0.00 24 1010.0
20260510164027 66 0.0 0.0 0.00 0.00 0.00 24 1010.0
20260510163018 66 0.0 0.0 0.00 0.00 0.00 24 1011.0
20260510161035 66 0.0 0.0 0.00 0.00 0.00 23 1011.0
20260510160041 67 23 1.0 3.0 0.00 0.00 0.00 23 1011.0
20260510155035 67 68 0.0 1.0 0.00 0.00 0.00 23 1011.0
20260510154032 67 0.0 0.0 0.00 0.00 0.00 24 1011.0
20260510153017 68 0.0 0.0 0.00 0.00 0.00 23 1011.0
20260510152106 69 0.0 0.0 0.00 0.00 0.00 23 1011.5
20260510151050 69 203 0.0 1.0 0.00 0.00 0.00 23 1012.0
20260510150027 70 338 0.0 1.0 0.00 0.00 0.00 23 1012.0
20260510145047 71 358 0.0 1.0 0.00 0.00 0.00 23 1012.0
20260510144106 71 23 0.0 1.0 0.00 0.00 0.00 23 1012.0
20260510143103 71 23 0.0 1.0 0.00 0.00 0.00 24 1012.0
20260510142033 72 278 1.0 1.0 0.00 0.00 0.00 24 1012.0
20260510141019 73 23 0.0 1.0 0.00 0.00 0.00 24 1012.0
20260510140022 74 341 0.0 2.0 0.00 0.00 0.00 24 1012.0
20260510135048 74 0.0 0.0 0.00 0.00 0.00 25 1012.5
20260510134024 74 23 0.0 1.0 0.00 0.00 0.00 26 1013.0
20260510133022 73 6 0.0 1.0 0.00 0.00 0.00 27 1013.0
20260510132046 72 23 0.0 1.0 0.00 0.00 0.00 28 1013.0
20260510131040 72 0.0 0.0 0.00 0.00 0.00 29 1013.0
20260510130015 71 0.0 0.0 0.00 0.00 0.00 30 1013.0
20260510125032 71 1 0.0 1.0 0.00 0.00 0.00 31 1013.0
20260510124020 70 238 1.0 2.0 0.00 0.00 0.00 31 1013.0
20260510123018 69 294 0.0 1.0 0.00 0.00 0.00 32 1014.0
20260510122016 68 212 1.0 2.0 0.00 0.00 0.00 32 1014.0
20260510121022 68 135 0.0 1.0 0.00 0.00 0.00 33 1014.0
20260510120026 67 34 2.0 4.0 0.00 0.00 0.00 33 1014.0
20260510115050 66 243 1.0 1.0 0.00 0.00 0.00 33 1014.0
20260510114037 66 56 2.0 5.0 0.00 0.00 0.00 33 1014.0
20260510113034 65 23 1.0 3.0 0.00 0.00 0.00 34 1014.0
20260510112018 65 218 1.0 3.0 0.00 0.00 0.00 34 1014.0
20260510111052 65 13 1.0 1.0 0.00 0.00 0.00 34 1014.0
20260510110043 65 55 1.0 4.0 0.00 0.00 0.00 35 1014.0
20260510105044 64 34 1.0 2.0 0.00 0.00 0.00 35 1014.0
20260510104020 64 165 1.0 3.0 0.00 0.00 0.00 35 1014.0
20260510103037 64 198 1.0 1.0 0.00 0.00 0.00 36 1015.0
20260510102034 64 184 1.0 2.0 0.00 0.00 0.00 36 1015.0
20260510101028 63 15 2.0 3.0 0.00 0.00 0.00 36 1015.0
20260510100026 63 211 1.0 2.0 0.00 0.00 0.00 36 1015.0
20260510095047 63 0.0 0.0 0.00 0.00 0.00 37 1015.0
20260510094026 62 45 2.0 4.0 0.00 0.00 0.00 38 1015.0
20260510093039 62 9 1.0 1.0 0.00 0.00 0.00 38 1015.0
20260510092022 61 281 0.0 1.0 0.00 0.00 0.00 39 1015.4
20260510091018 61 30 1.0 3.0 0.00 0.00 0.00 40 1016.1
20260510090057 61 360 1.0 3.0 0.00 0.00 0.00 40 1016.1
20260510085030 61 12 1.0 2.0 0.00 0.00 0.00 41 1016.1
20260510084023 60 248 0.0 1.0 0.00 0.00 0.00 42 1016.1
20260510083131 60 225 1.0 1.0 0.00 0.00 0.00 42 1016.1
20260510082044 59 42 1.0 2.0 0.00 0.00 0.00 42 1016.1
20260510081020 59 0.0 0.0 0.00 0.00 0.00 43 1016.1
20260510080046 59 338 0.0 1.0 0.00 0.00 0.00 44 1016.1
20260510075025 59 242 0.0 1.0 0.00 0.00 0.00 44 1016.1
20260510074016 59 231 0.0 1.0 0.00 0.00 0.00 45 1016.1
20260510073054 58 338 1.0 2.0 0.00 0.00 0.00 45 1016.1
20260510072040 58 13 0.0 1.0 0.00 0.00 0.00 45 1016.1
20260510071025 58 0.0 0.0 0.00 0.00 0.00 45 1016.1
20260510070016 58 243 1.0 3.0 0.00 0.00 0.00 46 1016.1
20260510065024 57 338 1.0 1.0 0.00 0.00 0.00 46 1016.5
20260510064035 57 293 0.0 1.0 0.00 0.00 0.00 47 1017.1
20260510063037 56 293 0.0 1.0 0.00 0.00 0.00 47 1017.1
20260510062047 56 315 1.0 1.0 0.00 0.00 0.00 48 1017.1
20260510061040 55 0.0 0.0 0.00 0.00 0.00 49 1017.1
20260510060024 55 0 0.0 2.0 0.00 0.00 0.00 50 1017.1
20260510055047 54 0.0 0.0 0.00 0.00 0.00 51 1017.1
20260510054043 54 0.0 0.0 0.00 0.00 0.00 52 1017.1
20260510053052 53 0.0 0.0 0.00 0.00 0.00 52 1017.1
20260510052021 52 0.0 0.0 0.00 0.00 0.00 53 1017.1
20260510051036 52 0.0 0.0 0.00 0.00 0.00 54 1017.1
20260510045016 50 0.0 0.0 0.00 0.00 0.00 55 1017.1
20260510044047 50 0.0 0.0 0.00 0.00 0.00 55 1017.1
20260510043028 49 0.0 0.0 0.00 0.00 0.00 56 1017.1
20260510042033 49 0.0 0.0 0.00 0.00 0.00 56 1017.1
20260510041016 48 0.0 0.0 0.00 0.00 0.00 57 1017.1
20260510040045 48 0.0 0.0 0.00 0.00 0.00 58 1017.1
20260510035019 47 0.0 0.0 0.00 0.00 0.00 58 1017.1
20260510034052 47 0.0 0.0 0.00 0.00 0.00 58 1017.1
20260510033019 47 0.0 0.0 0.00 0.00 0.00 58 1017.1
20260510032049 47 0.0 0.0 0.00 0.00 0.00 58 1017.1
20260510031106 47 0.0 0.0 0.00 0.00 0.00 58 1017.1
20260510030019 47 0.0 0.0 0.00 0.00 0.00 58 1017.1
20260510025043 47 0.0 0.0 0.00 0.00 0.00 57 1017.1
20260510024047 47 0.0 0.0 0.00 0.00 0.00 57 1017.1
20260510023017 47 0.0 0.0 0.00 0.00 0.00 57 1018.1
20260510022018 47 0.0 0.0 0.00 0.00 0.00 57 1018.1
20260510021033 47 0.0 0.0 0.00 0.00 0.00 57 1018.1
20260510020035 47 0.0 0.0 0.00 0.00 0.00 57 1018.1
20260510015034 47 0.0 0.0 0.00 0.00 0.00 57 1018.1
20260510014028 47 0.0 0.0 0.00 0.00 0.00 57 1018.1
20260510013024 47 0.0 0.0 0.00 0.00 0.00 57 1018.1
20260510012024 48 0.0 0.0 0.00 0.00 0.00 56 1018.1
20260510011023 48 0.0 0.0 0.00 0.00 0.00 56 1018.1
20260510010022 48 0.0 0.0 0.00 0.00 0.00 56 1018.1
20260510005019 48 0.0 0.0 0.00 0.00 0.00 56 1018.1
20260510004043 48 0.0 0.0 0.00 0.00 0.00 56 1018.1
20260510003046 48 0.0 0.0 0.00 0.00 0.00 56 1018.1
20260510002107 48 0.0 0.0 0.00 0.00 0.00 56 1018.1
20260510001034 48 0.0 0.0 0.00 0.00 0.00 56 1018.1
20260510000027 48 0.0 0.0 0.00 0.00 0.00 56 1018.1
20260509235038 48 0.0 0.0 0.00 0.00 0.00 55 1018.1
20260509234042 49 0.0 0.0 0.00 0.00 0.00 55 1018.1
20260509233045 49 0.0 0.0 0.00 0.00 0.00 54 1018.1
20260509232027 49 0.0 0.0 0.00 0.00 0.00 54 1018.1
20260509231032 49 0.0 0.0 0.00 0.00 0.00 54 1018.1
20260509230046 49 0.0 0.0 0.00 0.00 0.00 54 1018.1
20260509225036 50 0.0 0.0 0.00 0.00 0.00 53 1018.5
20260509224034 50 0.0 0.0 0.00 0.00 0.00 53 1019.1
20260509223044 50 0.0 0.0 0.00 0.00 0.00 53 1019.1
20260509222037 50 0.0 0.0 0.00 0.00 0.00 52 1019.1
20260509221034 50 0.0 0.0 0.00 0.00 0.00 52 1019.1
20260509220033 50 0.0 0.0 0.00 0.00 0.00 51 1019.1
20260509215038 50 0.0 0.0 0.00 0.00 0.00 51 1019.1
20260509214032 50 0.0 0.0 0.00 0.00 0.00 51 1019.1
20260509213044 50 0.0 0.0 0.00 0.00 0.00 51 1019.1
20260509212032 50 0.0 0.0 0.00 0.00 0.00 50 1019.1
20260509211045 51 0.0 0.0 0.00 0.00 0.00 50 1019.1
20260509210019 51 0.0 0.0 0.00 0.00 0.00 50 1019.1
20260509205035 51 0.0 0.0 0.00 0.00 0.00 50 1019.1
20260509204034 51 0.0 0.0 0.00 0.00 0.00 49 1019.1
20260509203048 52 0.0 0.0 0.00 0.00 0.00 49 1019.1
20260509202017 52 0.0 0.0 0.00 0.00 0.00 49 1019.1